If you wish to contribute or participate in the discussions about articles you are invited to join SKYbrary as a registered user

 Actions

La Rochelle-Île de Ré Airport

From SKYbrary Wiki

LFBH
Airport
ICAO: LFBH – IATA: LRH
Summary
Name La Rochelle-Île de Ré Airport
Region Europe
Territory France FR.gif
Location , Poitou-Charentes
Serving La Rochelle
Elevation 22.555 m
74 ft
74 ft22.555 m
Type medium airport
Coordinates 46° 10' 45.12" N, 1° 11' 43.01" W
Runways
Designator Length Width Surface ROPS
10/28 2255 m7,398.294 ft
45 m147.638 ft
ASP /


METAR
Observation LFBH 171700Z AUTO 24008KT 210V270 CAVOK 16/14 Q1012 TEMPO 24015G25KT 4000 SHRA BKN020TCU
Station La Rochelle
Date/Time 17 October 2019 17:00:00
Wind direction 240°
Wind speed 08 kts
Lowest cloud amount broken clouds
Temperature 16°C
Dew point 14°C
Humidity 87%
QNH 1012 hPa
Weather condition n/a